DW9727 Weather Reports


time (UTC)temp
F
wind
direction
speed
knots
gust
knots
rain 1hr
in
rain 24hr
in
rain mn
in
humidity
%
barometer
mb
20260502184711 65 319 4.3 12.2 0.00 0.00 0.00 35 1019.3
20260502183710 64 246 7.0 12.2 0.00 0.00 0.00 34 1019.3
20260502181710 64 227 5.2 10.4 0.00 0.00 0.00 33 1019.7
20260502180710 64 285 7.0 12.2 0.00 0.00 0.00 40 1020.0
20260502163711 60 219 5.2 12.2 0.00 0.00 0.00 39 1021.3
20260502162710 60 220 5.2 10.4 0.00 0.00 0.00 42 1021.4
20260502161710 59 267 6.1 13.0 0.00 0.00 0.00 42 1021.5
20260502160710 59 249 6.1 10.4 0.00 0.00 0.00 42 1021.7
20260502150711 55 263 4.3 10.4 0.00 0.00 0.00 46 1022.2
20260502130711 36 284 0.9 2.6 0.00 0.00 0.00 83 1022.6
20260502122710 31 263 0.0 0.9 0.00 0.00 0.00 85 1022.6
20260502121710 31 264 0.9 1.7 0.00 0.00 0.00 85 1022.5
20260502120710 31 264 0.9 1.7 0.00 0.00 0.00 84 1022.6
20260502115710 31 264 0.0 1.7 0.00 0.00 0.00 84 1022.4
20260502114710 31 307 0.0 0.0 0.00 0.00 0.00 84 1022.1
20260502113710 31 307 0.0 0.0 0.00 0.00 0.00 84 1022.2
20260502112710 30 308 0.0 0.9 0.00 0.00 0.00 83 1022.2
20260502111710 31 308 0.9 1.7 0.00 0.00 0.00 82 1022.2
20260502110711 31 305 0.9 1.7 0.00 0.00 0.00 82 1022.3
20260502105710 31 292 0.9 2.6 0.00 0.00 0.00 81 1022.3
20260502103711 32 284 0.0 0.0 0.00 0.00 0.00 81 1022.4
20260502102711 32 236 0.0 1.7 0.00 0.00 0.00 80 1022.3
20260502101710 32 236 0.9 1.7 0.00 0.00 0.00 80 1022.4
20260502100710 32 236 0.0 0.0 0.00 0.00 0.00 79 1022.3
20260502090711 33 236 0.9 1.7 0.00 0.00 0.00 79 1022.0
20260502070710 34 307 0.9 1.7 0.00 0.00 0.00 74 1021.8
20260502065710 34 304 0.9 1.7 0.00 0.00 0.00 74 1021.8
20260502064710 35 304 1.7 2.6 0.00 0.00 0.00 73 1021.8
20260502063710 35 304 0.9 1.7 0.00 0.00 0.00 72 1021.9
20260502062710 35 304 1.7 2.6 0.00 0.00 0.00 71 1021.9
20260502061710 36 304 0.9 1.7 0.00 0.00 0.00 71 1021.9
20260502060711 36 304 0.0 0.0 0.00 0.00 0.00 70 1021.8
20260502055711 36 0 0.0 0.0 0.00 0.00 0.00 70 1021.8
20260502051710 38 0 0.0 0.0 0.00 0.00 0.00 67 1021.6
20260502045710 39 0 0.0 0.0 0.00 0.00 0.00 64 1021.5
20260502044711 40 0 0.0 0.0 0.00 0.00 0.00 61 1021.5
20260502043710 40 0 0.0 0.0 0.00 0.00 0.00 62 1021.4
20260502042711 41 0 0.0 0.0 0.00 0.00 0.00 61 1021.4
20260502041710 42 0 0.0 1.7 0.00 0.00 0.00 56 1021.3
20260502040710 42 32 0.0 0.0 0.00 0.00 0.00 55 1021.3
20260502033711 43 21 0.9 2.6 0.00 0.00 0.00 53 1021.1
20260502032710 44 32 0.0 1.7 0.00 0.00 0.00 53 1021.1
20260502031711 44 32 0.0 1.7 0.00 0.00 0.00 52 1021.1
20260502030710 45 34 0.9 2.6 0.00 0.00 0.00 51 1021.0
20260502025712 45 28 0.9 2.6 0.00 0.00 0.00 50 1020.9
20260502023711 46 36 0.9 2.6 0.00 0.00 0.00 48 1020.6
20260502022710 47 33 0.9 2.6 0.00 0.00 0.00 47 1020.6
20260502021710 48 20 1.7 2.6 0.00 0.00 0.00 45 1020.4
20260502020710 48 5 1.7 4.3 0.00 0.00 0.00 45 1020.2
20260502015711 49 26 1.7 5.2 0.00 0.00 0.00 45 1020.1
20260502014710 50 24 1.7 2.6 0.00 0.00 0.00 43 1020.2
20260502013710 51 46 0.9 4.3 0.00 0.00 0.00 41 1019.9
20260502012711 52 16 2.6 4.3 0.00 0.00 0.00 40 1019.9
20260502011710 53 35 2.6 7.0 0.00 0.00 0.00 36 1019.8
20260502005711 54 41 3.5 10.4 0.00 0.00 0.00 36 1019.6
20260502004710 55 5 6.1 13.9 0.00 0.00 0.00 34 1019.4
20260502003710 56 331 5.2 10.4 0.00 0.00 0.00 35 1019.4
20260502002710 56 42 7.0 13.0 0.00 0.00 0.00 34 1019.2
20260502001711 57 335 5.2 8.7 0.00 0.00 0.00 33 1019.3
20260502000710 57 16 6.1 11.3 0.00 0.00 0.00 32 1019.3
20260501235710 57 5 6.1 11.3 0.00 0.00 0.00 32 1019.3
20260501234710 58 17 6.1 10.4 0.00 0.00 0.00 34 1019.2
20260501233710 58 335 6.1 13.0 0.00 0.00 0.00 32 1019.2
20260501232710 58 5 7.8 14.8 0.00 0.00 0.00 32 1019.0
20260501231710 58 335 6.1 13.9 0.00 0.00 0.00 30 1019.0
20260501230710 58 25 8.7 14.8 0.00 0.00 0.00 30 1019.0
20260501225710 59 19 7.8 11.3 0.00 0.00 0.00 32 1019.0
20260501224710 59 12 2.6 13.0 0.00 0.00 0.00 34 1019.0
20260501223710 59 9 7.8 12.2 0.00 0.00 0.00 31 1019.0
20260501222710 59 335 6.1 12.2 0.00 0.00 0.00 33 1019.0
20260501221711 59 319 5.2 12.2 0.00 0.00 0.00 33 1019.0
20260501220710 60 321 7.8 13.9 0.00 0.00 0.00 38 1019.1
20260501215710 59 335 6.1 15.6 0.00 0.00 0.00 37 1018.9
20260501213710 60 314 6.1 13.0 0.00 0.00 0.00 34 1019.3
20260501212710 59 0 7.8 15.6 0.00 0.00 0.00 34 1019.3
20260501211710 60 313 10.4 17.4 0.00 0.00 0.00 33 1019.4
20260501210711 59 317 6.1 13.0 0.00 0.00 0.00 40 1019.3
20260501205710 59 15 10.4 14.8 0.00 0.00 0.00 34 1019.6
20260501204711 59 17 7.0 12.2 0.00 0.00 0.00 34 1019.7
20260501203711 59 335 5.2 11.3 0.00 0.00 0.00 38 1019.7
20260501202711 58 335 5.2 14.8 0.00 0.00 0.00 34 1019.8
20260501201710 59 31 7.8 14.8 0.00 0.00 0.00 41 1019.9
20260501200710 59 293 10.4 15.6 0.00 0.00 0.00 39 1020.0
20260501195710 59 322 7.0 15.6 0.00 0.00 0.00 39 1019.9
20260501194710 59 317 9.6 17.4 0.00 0.00 0.00 39 1020.0
20260501193710 58 325 8.7 18.2 0.00 0.00 0.00 39 1020.1
20260501192710 58 317 8.7 15.6 0.00 0.00 0.00 39 1020.0